User: anonymous
Location: NJAA Observatory
(40.6819°N, 74.8979°W)
Time: 05:19:09
(UTC-04:00)
Language:

Cosmos 2263 Rocket - Orbit

View from above orbital plane
View from above orbital plane
View from above satellite
View from above satellite

Ground track
Ground track

The orbit data is extracted from the following two-line orbital elements,

1 22803U 93059B   14202.44879847 -.00000092  00000-0 -21915-4 0  3226
2 22803 070.9929 326.6114 0017948 209.7627 150.2477 14.16671640 77903
Epoch (UTC): 21 July 2014 10:46:16
Eccentricity: 0.0017948
inclination: 70.9929°
perigee height: 823 km
apogee height: 849 km
right ascension of ascending node: 326.6114°
argument of perigee: 209.7627°
revolutions per day: 14.16671640
mean anomaly at epoch: 150.2477°
orbit number at epoch: 7790

The dashed part of the orbit path shows where the satellite is in the earth's shadow,  

DLR